Regional Weather Roundup
Issued by NWS

Home | Current Version | Previous Version | Graphics & Text | Print | Product List | Glossary On
Versions: 1 2 3 4 5 6 7 8 9 10 11 12 13 14 15 16 17 18 19 20 21 22 23 24 25 26 27 28 29 30 31 32 33 34 35 36 37 38 39 40 41 42 43 44 45 46 47 48 49 50
815
ASUS44 KLIX 262301
RWRLA
LOUISIANA WEATHER ROUNDUP
NATIONAL WEATHER SERVICE NEW ORLEANS LA
600 PM CDT TUE AUG 26 2014

NOTE: "FAIR" INDICATES FEW OR NO CLOUDS BELOW 12,000 FEET WITH NO
      SIGNIFICANT WEATHER AND/OR OBSTRUCTIONS TO VISIBILITY.
      SKY/WX - SKY CONDITION AND SIGNIFICANT WEATHER.
      TMP - AIR TEMPERATURE.    DP   - DEWPOINT TEMPERATURE.
      RH  - RELATIVE HUMIDITY.  PRES - PRESSURE.
      HX  - HEAT INDEX.         WCI  - WIND CHILL INDEX.

*  THESE STATIONS ARE NOT NWS OR FAA STATIONS AND ARE NOT UNDER
   NWS QUALITY CONTROL.

LAZ040-048-061>063-065-066-069-270000-
SOUTHEAST LOUISIANA

CITY           SKY/WX    TMP DP  RH WIND       PRES   REMARKS
N.O. AUDUBON     N/A     87  74  64 MISG        N/A  HX  95
N.O. INTL ARPT CLOUDY    86  69  56 VRB7      29.95S
N.O. LAKEFRONT FAIR      85  71  63 E13       29.96S
N.O. DOWNTOWN* FAIR      86  68  54 E3        29.96S
SLIDELL        FAIR      86  73  65 S6        29.95S
BATON ROUGE    FAIR      86  71  60 NE5       29.95F
BOOTHVILLE     FAIR      84  74  71 E8        29.96S
BELLE CHASSE   PTSUNNY   85  71  63 E8        29.95F
BOGALUSA*      FAIR      90  63  40 CALM      29.98S
GALLIANO*      NOT AVBL
NEW ROADS*     FAIR      85  71  62 N5        29.96S
GONZALES*      FAIR      85  74  70 CALM      29.95S
HAMMOND*       NOT AVBL
HOUMA*         MOSUNNY   82  73  74 NE5       29.95F
PORT FOURCHON* CLEAR     81  75  83 NE13      29.96S

$$

LAZ041-044-053-054-270000-
SOUTHWEST LOUISIANA

CITY           SKY/WX    TMP DP  RH WIND       PRES   REMARKS
LAKE CHARLES   FAIR      87  72  60 E8        29.93F
LAFAYETTE      PTSUNNY   83  75  77 SE3       29.95S
PATTERSON        N/A     77  73  88 E6        29.98S
SALT POINT       N/A     79  75  87 SE3       29.94F
NEW IBERIA     CLOUDY    81  75  82 SE6       29.96S
CHENAULT AIRPK PTSUNNY   88  70  55 E3        29.94

$$

LAZ027-028-270000-
CENTRAL LOUISIANA

CITY           SKY/WX    TMP DP  RH WIND       PRES   REMARKS
FORT POLK      FAIR      89  67  47 NE9       29.95F
ALEXANDRIA INT FAIR      88  69  53 NE6       29.94F
ALEXANDRIA     FAIR      89  69  51 NE7       29.96F

$$

LAZ001-002-270000-
NORTHWEST LOUISIANA

CITY           SKY/WX    TMP DP  RH WIND       PRES   REMARKS
SHREVEPORT     PTSUNNY   93  69  45 E6        29.97R HX  98
BARKSDALE AFB  FAIR      92  69  47 E8        29.97S HX  97
DTN SHREVEPORT FAIR      92  69  47 VRB5      29.97S HX  97

$$

LAZ014-016-270000-
NORTHEAST LOUISIANA

CITY           SKY/WX    TMP DP  RH WIND       PRES   REMARKS
MONROE         FAIR      91  69  48 E8        29.98F HX  96
TALLULAH       FAIR      89  61  38 E9        29.98S

$$




USA.gov is the U.S. government's official web portal to all federal, state and local government web resources and services.